sat.trackr.live / text

‹ back to catalog

STARLINK-2299

NORAD 48029 · 2021-024BE

PAYLOAD ACTIVE UNKNOWN

§ Identity

Operator
Country
US
Launch date
2021-03-24
Launch site
AFETR
Launch vehicle
Mass (kg)
RCS (m²)

Purposes: comms

External: N2YO · Heavens-Above · Gunter

§ Orbital elements

Epoch: 2026-09-06T06:22:52.654944Z

Period
87.99 min
Inclination
53.0931°
Eccentricity
0.0006202
Mean motion
16.36582566 rev/d
Perigee alt
170.8 km
Apogee alt
179.0 km
Semi-major
6,553.0 km
B*
6.3652e-4
RAAN
166.7651°
Arg perigee
228.5302°
Mean anomaly
131.5212°
Rev number
30,290

§ Raw data

STARLINK-22991 48029U 21024BE  26249.26588721  .05890864  12210-4  63652-3 0  99992 48029  53.0931 166.7651 0006202 228.5302 131.5212 16.36582566302907

JSON: /api/v1/satellites/48029 · /tle

For live sub-satellite position, see the globe view (requires WebGL).

§ Visibility from observer

Set your observer location to see the next 7 days of passes ≥ 10°. The values pass through the URL so the page stays shareable.

No JS? Fill the form by hand. The geolocation button needs JavaScript.